Regional Weather Roundup
Issued by NWS

Home | Current Version | Previous Version | Graphics & Text | Print | Product List | Glossary On
Versions: 1 2 3 4 5 6 7 8 9 10 11 12 13 14 15 16 17 18 19 20 21 22 23 24 25 26 27 28 29 30 31 32 33 34 35 36 37 38 39 40 41 42 43 44 45 46 47 48 49 50
000
ASUS45 KCYS 141110
RWRWY

WYOMING REGIONAL WEATHER ROUNDUP
NATIONAL WEATHER SERVICE CHEYENNE WY
400 AM MST SUN FEB 14 2016

NOTE:  "FAIR" INDICATES FEW OR NO CLOUDS BELOW 12,000 FEET
WITH NO SIGNIFICANT WEATHER AND/OR OBSTRUCTIONS TO VISIBILITY.

WYZ001-141200-
YELLOWSTONE NATIONAL PARK

CITY           SKY/WX    TMP DP  RH WIND       PRES   REMARKS
LK YELLOWSTONE   N/A     22  18  85 VRB6      30.02F WCI  14
W YELLOWSTONE  NOT AVBL

$$
WYZ002>013-054>058-071-098>099-141200-
NORTHERN WYOMING

CITY           SKY/WX    TMP DP  RH WIND       PRES   REMARKS
JACKSON        CLOUDY    27  25  93 SW9       30.07S WCI  17
CODY           FAIR      39  18  41 W22G36    29.87F WCI  29
GREYBULL       CLOUDY    30  22  72 NW6       29.90F WCI  24
WORLAND        FAIR      30  21  69 E7        29.87F WCI  23
SHERIDAN       CLOUDY    30  20  66 S5        29.87F WCI  25
BUFFALO        CLOUDY    31  19  61 N7        29.87F WCI  24
GILLETTE       FAIR      29  22  75 SW9       29.87F WCI  20
HULETT         FAIR      32  25  74 SW8       29.88F WCI  25
NEWCASTLE      FAIR      27  25  93 N8        29.91F WCI  18

$$
WYZ014>020-022>026-101>103-141200-
CENTRAL WYOMING

CITY           SKY/WX    TMP DP  RH WIND       PRES   REMARKS
BIG PINEY      MOCLDY    20  16  84 CALM      30.10F
PINEDALE       LGT SNOW  23  21  93 MISG      30.10F
DUBOIS         CLOUDY    28  18  64 N20G30    29.96R WCI  15
LANDER         FAIR      31  13  47 SW6       29.90F WCI  25
RIVERTON       FAIR      32  15  49 NW10      29.92F WCI  24
CASPER         FAIR      28  17  63 SW16      29.93F WCI  16
DOUGLAS        FAIR      24  21  88 S5        29.93F WCI  18

$$
WYZ021-027>030-104>119-141200-
SOUTHERN WYOMING

CITY           SKY/WX    TMP DP  RH WIND       PRES   REMARKS
EVANSTON       FAIR      28  19  69 SW10      30.16R WCI  19
FORT BRIDGER   CLOUDY    30  25  80 W7        30.16F WCI  23
ROCK SPRINGS   MOCLDY    31  18  58 W20G29    30.08F WCI  19
DIXON          CLOUDY    19  16  86 CALM      30.15F
RAWLINS        FAIR      28  17  63 W32G43    30.00F WCI  12
SARATOGA       CLOUDY    32  19  59 SW25G40   30.03F WCI  19
LARAMIE        MOCLDY    31  14  49 SW18G33   29.97F WCI  19
CHEYENNE       FAIR      37  13  37 NW7       29.93F WCI  32
TORRINGTON     FAIR      28  21  75 N5        29.93F WCI  23
PINE BLUFFS    FAIR      28  19  69 CALM      29.95F

$$



USA.gov is the U.S. government's official web portal to all federal, state and local government web resources and services.